www.pogodaiklimat.ru

Погода и климат >> Архив погоды >> Бразилия >> Мату-Гросу >> Кампу-Нову-ду-Паресис


ПОГОДА в Кампу-Нову-ду-Паресисе

  • Прогноз погоды в Кампу-Нову-ду-Паресисе
  • Монитор погоды в Кампу-Нову-ду-Паресисе

АРХИВ ПОГОДЫ в Кампу-Нову-ду-Паресисе

Время (UTC), дата Ветер
(напр.,м/с)
 
Видим.   Явления Облачность Т
(С)
Тd
(С)
f
(%)
Тe
(С)
Тes
(С)
Комфортность P
(гПа)
Po
(гПа)
Тmin
(С)
Tmax
(С)
R
(мм)
R24
(мм)
S
(см)
04 11.06 штиль 0
{1}
н/о н/о +20.3 -26.4 3 +19 +19 1014.1 953.9
05 11.06 штиль 0 н/о н/о +19.2 -27.2 3 +19 +19 1014.0 953.6
06 11.06 штиль 0
{1}
н/о н/о +19.5 -27.0 3 +19 +19 1013.7 953.4
07 11.06 штиль 0
{1}
н/о н/о +18.2 -27.8 3 +18 +18 1014.3 953.7
08 11.06 штиль 0
{1}
н/о н/о +18.5 -27.7 3 +18 +18 1014.2 953.6
09 11.06 штиль 0
{1}
н/о н/о +18.6 -27.6 3 +18 +18 1014.5 953.9
10 11.06 штиль 0
{1}
н/о н/о +18.9 -27.4 3 +18 +18 1015.0 954.5
11 11.06 штиль 0
{1}
н/о н/о +19.1 -27.2 3 +18 +18 1015.7 955.2
12 11.06 штиль 0
{1}
н/о н/о +23.0 -24.6 3 +20 +20 1015.8 956.0
13 11.06 ЮЗ 1
{2}
н/о н/о +26.6 -22.2 3 +22 +22 комфорт 1015.5 956.4
14 11.06 ЮЗ 2
{4}
н/о н/о +28.7 -20.8 3 +24 +24 комфорт 1014.9 956.3
15 11.06 ЮЗ 2
{4}
н/о н/о +29.3 -20.4 3 +25 +25 комфорт 1014.3 955.8
16 11.06 ЮЗ 2
{4}
н/о н/о +30.6 -19.5 3 +26 +26 жарко 1013.3 955.1
17 11.06 ЮЗ 2
{4}
н/о н/о +30.5 -19.6 3 +26 +26 жарко 1012.4 954.3
18 11.06 ЮЗ 2
{4}
н/о н/о +31.2 -19.1 3 +26 +26 жарко 1011.5 953.5
19 11.06 ЮЗ 1
{3}
н/о н/о +31.1 -19.2 3 +26 +26 жарко 1010.9 953.0
20 11.06 ЮЗ 1
{3}
н/о н/о +30.3 -19.7 3 +26 +26 жарко 1010.9 952.8
21 11.06 ЮЗ 1
{3}
н/о н/о +28.9 -20.6 3 +24 +24 комфорт 1011.4 953.0
22 11.06 ЮЗ 1
{2}
н/о н/о +26.4 -22.3 3 +22 +22 комфорт 1012.3 953.4
23 11.06 ЮЗ 1
{2}
н/о н/о +24.8 -23.4 3 +21 +21 комфорт 1013.0 953.7
01 12.06 ЮЗ 1
{1}
н/о н/о +23.3 -24.4 3 +20 +20 1013.7 954.1
02 12.06 штиль 0
{1}
н/о н/о +21.3 -25.7 3 +19 +19 1014.1 954.1
03 12.06 штиль 0
{1}
н/о н/о +20.6 -26.2 3 +19 +19 1014.2 954.1
04 12.06 штиль 0
{1}
н/о н/о +19.9 -26.7 3 +19 +19 1014.5 954.2
05 12.06 штиль 0
{1}
н/о н/о +19.6 -26.9 3 +19 +19 1014.6 954.2
06 12.06 штиль 0 н/о н/о +18.9 -27.3 3 +18 +18 1014.4 953.9
07 12.06 штиль 0
{1}
н/о н/о +18.5 -27.6 3 +18 +18 1014.4 953.8
08 12.06 штиль 0 н/о н/о +18.2 -27.8 3 +18 +18 1014.4 953.8
09 12.06 штиль 0
{1}
н/о н/о +17.7 -28.2 3 +18 +18 1015.0 954.2
10 12.06 штиль 0
{1}
н/о н/о +17.3 -28.4 3 +17 +17 1015.5 954.6
11 12.06 штиль 0
{1}
н/о н/о +17.9 -28.1 3 +18 +18 1016.1 955.3
12 12.06 штиль 0 н/о н/о +21.5 -25.6 3 +19 +19 1016.2 956.1
13 12.06 ЮЗ 1
{2}
н/о н/о +25.9 -22.7 3 +22 +22 комфорт 1015.7 956.5
14 12.06 ЮЗ 2
{4}
н/о н/о +27.7 -21.4 3 +23 +23 комфорт 1015.2 956.4
15 12.06 ЮЗ 2
{4}
н/о н/о +30.0 -19.9 3 +25 +25 комфорт 1013.8 955.5
16 12.06 ЮЗ 2
{5}
н/о н/о +30.4 -19.6 3 +26 +26 жарко 1012.9 954.7
17 12.06 ЮЗ 2
{5}
н/о н/о +30.8 -19.4 3 +26 +26 жарко 1012.0 953.9
18 12.06 ЮЗ 2
{4}
н/о н/о +31.1 -19.2 3 +26 +26 жарко 1010.9 953.0
19 12.06 ЮЗ 2
{4}
н/о н/о +30.7 -19.4 3 +26 +26 жарко 1010.6 952.6
20 12.06 ЮЗ 1
{4}
н/о н/о +30.5 -19.5 3 +26 +26 жарко 1011.0 952.9
21 12.06 ЮЗ 1
{3}
н/о н/о +28.6 -20.8 3 +24 +24 комфорт 1011.8 953.3
22 12.06 ЮЗ 1
{2}
н/о н/о +26.2 -22.4 3 +22 +22 комфорт 1012.7 953.7
23 12.06 ЮЗ 1
{2}
н/о н/о +24.2 -23.8 3 +21 +21 комфорт 1013.4 954.0
00 13.06 штиль 0
{1}
н/о н/о +23.2 -24.5 3 +20 +20 1013.9 954.3
01 13.06 ЮЗ 1
{3}
н/о н/о +23.3 -24.4 3 +20 +20 1014.2 954.6
02 13.06 штиль 0
{1}
н/о н/о +21.2 -25.8 3 +19 +19 1014.7 954.6
03 13.06 ЮЗ 1
{2}
н/о н/о +20.5 -26.3 3 +20 +20 1014.8 954.6
04 13.06 штиль 0
{2}
н/о н/о +19.9 -26.7 3 +19 +19 1014.6 954.3
05 13.06 штиль 0
{1}
н/о н/о +18.9 -27.3 3 +18 +18 1014.6 954.1
06 13.06 ЮЗ 1
{2}
н/о н/о +17.5 -28.3 3 +19 +19 1015.2 954.4
07 13.06 штиль 0
{2}
н/о н/о +16.7 -28.8 3 +17 +17 1015.1 954.1
08 13.06 штиль 0
{1}
н/о н/о +17.1 -28.6 3 +17 +17 1015.1 954.2
09 13.06 штиль 0
{1}
н/о н/о +17.3 -28.5 3 +17 +17 1015.2 954.3
10 13.06 штиль 0
{1}
н/о н/о +16.9 -28.7 3 +17 +17 1015.6 954.6
11 13.06 штиль 0
{1}
н/о н/о +17.1 -28.6 3 +17 +17 1016.2 955.2
12 13.06 штиль 0
{1}
н/о н/о +21.1 -25.9 3 +19 +19 1016.5 956.3
13 13.06 штиль 0
{1}
н/о н/о +26.7 -22.1 3 +23 +23 комфорт 1016.0 956.9
14 13.06 ЮЗ 2
{3}
н/о н/о +29.1 -20.5 3 +25 +25 комфорт 1015.6 957.0
15 13.06 ЮЗ 2
{4}
н/о н/о +28.7 -20.8 3 +24 +24 комфорт 1015.2 956.6
16 13.06 ЮЗ 2
{4}
н/о н/о +31.1 -19.2 3 +26 +26 жарко 1013.7 955.6
17 13.06 ЮЗ 2
{4}
н/о н/о +31.3 -19.1 3 +27 +27 жарко 1012.8 954.8
18 13.06 ЮЗ 2
{4}
н/о н/о +31.3 -19.0 3 +27 +27 жарко 1011.8 953.8
19 13.06 ЮЗ 2
{4}
н/о н/о +30.5 -19.6 3 +26 +26 жарко 1011.5 953.4
20 13.06 ЮЗ 2
{4}
н/о н/о +30.5 -19.6 3 +26 +26 жарко 1011.3 953.2
21 13.06 ЮЗ 1
{3}
н/о н/о +28.8 -20.7 3 +24 +24 комфорт 1011.7 953.3
22 13.06 ЮЗ 1
{2}
н/о н/о +26.2 -22.4 3 +22 +22 комфорт 1012.6 953.6
23 13.06 ЮЗ 1
{2}
н/о н/о +24.1 -23.9 3 +21 +21 комфорт 1013.5 954.1
01 14.06 штиль 0
{1}
н/о н/о +22.2 -25.1 3 +19 +19 1014.9 955.0
02 14.06 штиль 0 н/о н/о +20.9 -26.0 3 +19 +19 1015.0 954.9
03 14.06 ЮЗ 1
{1}
н/о н/о +20.5 -26.3 3 +21 +21 комфорт 1014.8 954.6
04 14.06 штиль 0
{1}
н/о н/о +20.0 -26.6 3 +19 +19 1014.9 954.6
05 14.06 штиль 0
{1}
н/о н/о +19.6 -26.9 3 +19 +19 1014.9 954.5
06 14.06 ЮЗ 1
{2}
н/о н/о +18.0 -28.0 3 +19 +19 1015.2 954.5
07 14.06 штиль 0
{2}
н/о н/о +17.8 -28.1 3 +18 +18 1015.1 954.3
08 14.06 штиль 0
{1}
н/о н/о +18.2 -27.9 3 +18 +18 1015.0 954.3
09 14.06 штиль 0 н/о н/о +18.3 -27.8 3 +18 +18 1015.4 954.7
10 14.06 штиль 0 н/о н/о +17.2 -28.5 3 +17 +17 1016.1 955.2
11 14.06 штиль 0 н/о н/о +18.2 -27.8 3 +18 +18 1016.7 955.9
12 14.06 штиль 0
{1}
н/о н/о +21.7 -25.5 3 +19 +19 1016.5 956.4
13 14.06 штиль 0
{1}
н/о н/о +25.3 -23.0 3 +22 +22 комфорт 1016.0 956.7
14 14.06 ЮЗ 2
{3}
н/о н/о +28.4 -21.0 3 +24 +24 комфорт 1015.1 956.4
15 14.06 ЮЗ 2
{4}
н/о н/о +29.3 -20.4 3 +25 +25 комфорт 1014.6 956.1
16 14.06 ЮЗ 2
{4}
н/о н/о +29.4 -20.3 3 +25 +25 комфорт 1013.9 955.5
17 14.06 ЮЗ 2
{4}
н/о н/о +31.1 -19.1 3 +26 +26 жарко 1012.4 954.4
18 14.06 ЮЗ 2
{4}
н/о н/о +31.4 -19.0 3 +27 +27 жарко 1011.3 953.4
19 14.06 ЮЗ 1
{4}
н/о н/о +31.1 -19.2 3 +26 +26 жарко 1011.1 953.1
20 14.06 ЮЗ 2
{3}
н/о н/о +30.2 -19.8 3 +26 +26 жарко 1011.1 953.0
21 14.06 ЮЗ 1
{3}
н/о н/о +28.8 -20.7 3 +24 +24 комфорт 1011.6 953.2
22 14.06 ЮЗ 1
{2}
н/о н/о +26.3 -22.4 3 +22 +22 комфорт 1012.6 953.7
23 14.06 ЮЗ 1
{2}
н/о н/о +24.8 -23.4 3 +21 +21 комфорт 1013.4 954.1
01 15.06 штиль 0
{1}
н/о н/о +21.8 -25.4 3 +19 +19 1014.7 954.8
02 15.06 штиль 0
{1}
н/о н/о +21.9 -25.4 3 +19 +19 1014.7 954.8
03 15.06 ЮЗ 1
{1}
н/о н/о +21.1 -25.9 3 +19 +19 1014.7 954.6
04 15.06 штиль 0
{1}
н/о н/о +20.3 -26.4 3 +19 +19 1014.7 954.5
05 15.06 штиль 0
{3}
н/о н/о +19.4 -27.1 3 +19 +19 1014.9 954.5
06 15.06 штиль 0
{1}
н/о н/о +18.5 -27.7 3 +18 +18 1014.8 954.2
07 15.06 штиль 0
{1}
н/о н/о +18.7 -27.5 3 +18 +18 1014.5 954.0
08 15.06 штиль 0
{1}
н/о н/о +18.4 -27.7 3 +18 +18 1014.6 954.0
09 15.06 штиль 0 н/о н/о +18.1 -27.9 3 +18 +18 1015.1 954.4
10 15.06 штиль 0 н/о н/о +17.7 -28.2 3 +18 +18 1015.4 954.6
11 15.06 штиль 0
{1}
н/о н/о +18.1 -27.9 3 +18 +18 1015.8 955.1
12 15.06 штиль 0
{1}
н/о н/о +22.6 -24.8 3 +20 +20 1015.7 955.9
13 15.06 ЮЗ 1
{3}
н/о н/о +26.9 -22.0 3 +23 +23 комфорт 1015.4 956.4
14 15.06 ЮЗ 2
{4}
н/о н/о +28.4 -21.0 3 +24 +24 комфорт 1014.9 956.2
15 15.06 ЮЗ 2
{5}
н/о н/о +30.0 -19.9 3 +25 +25 комфорт 1014.2 955.9
16 15.06 ЮЗ 2
{4}
н/о н/о +31.4 -19.0 3 +27 +27 жарко 1012.9 954.9
17 15.06 ЮЗ 2
{4}
н/о н/о +31.7 -18.8 3 +27 +27 жарко 1011.7 953.8
18 15.06 ЮЗ 2
{4}
н/о н/о +31.6 -18.8 3 +27 +27 жарко 1010.8 953.0
19 15.06 ЮЗ 2
{4}
н/о н/о +31.3 -19.0 3 +27 +27 жарко 1010.7 952.8
20 15.06 ЮЗ 2
{3}
н/о н/о +30.7 -19.4 3 +26 +26 жарко 1010.8 952.8
21 15.06 ЮЗ 1
{3}
н/о н/о +28.7 -20.8 3 +24 +24 комфорт 1011.3 952.9
22 15.06 ЮЗ 1
{2}
н/о н/о +26.5 -22.3 3 +22 +22 комфорт 1012.3 953.4
23 15.06 ЮЗ 1
{2}
н/о н/о +24.8 -23.4 3 +21 +21 комфорт 1013.2 953.9
01 16.06 ЮЗ 1
{1}
н/о н/о +21.5 -25.6 3 +19 +19 1014.7 954.7
02 16.06 ЮЗ 1
{1}
н/о н/о +22.1 -25.2 3 +19 +19 1014.9 955.0
03 16.06 штиль 0
{1}
н/о н/о +20.1 -26.6 3 +19 +19 1015.5 955.2
04 16.06 штиль 0
{1}
н/о н/о +19.7 -26.9 3 +19 +19 1015.8 955.4
05 16.06 ЮЗ 1
{2}
н/о н/о +18.2 -27.8 3 +20 +20 1016.2 955.5
06 16.06 ЮЗ 1
{1}
н/о н/о +18.4 -27.7 3 +20 +20 1016.0 955.3
07 16.06 штиль 0
{1}
н/о н/о +18.7 -27.5 3 +18 +18 1015.6 955.0
08 16.06 ЮЗ 1
{1}
н/о н/о +18.4 -27.7 3 +20 +20 1016.0 955.3
09 16.06 штиль 0
{1}
н/о н/о +18.5 -27.6 3 +18 +18 1016.5 955.8
10 16.06 штиль 0
{1}
н/о н/о +17.7 -28.2 3 +18 +18 1017.0 956.1
11 16.06 штиль 0 н/о н/о +18.2 -27.9 3 +18 +18 1017.5 956.7
12 16.06 штиль 0
{2}
н/о н/о +22.4 -25.0 3 +19 +19 1017.9 957.9
13 16.06 ЮЗ 1
{3}
н/о н/о +26.1 -22.5 3 +22 +22 комфорт 1017.5 958.2
14 16.06 ЮЗ 2
{4}
н/о н/о +28.6 -20.9 3 +24 +24 комфорт 1016.9 958.1
15 16.06 ЮЗ 2
{5}
н/о н/о +29.6 -20.2 3 +25 +25 комфорт 1016.0 957.5
16 16.06 ЮЗ 2
{5}
н/о н/о +30.7 -19.4 3 +26 +26 жарко 1014.7 956.5
17 16.06 ЮЗ 2
{5}
н/о н/о +31.4 -18.9 3 +27 +27 жарко 1013.4 955.4
18 16.06 ЮЗ 2
{4}
н/о н/о +30.6 -19.5 3 +26 +26 жарко 1012.8 954.7
19 16.06 ЮЗ 1
{4}
н/о н/о +30.2 -19.8 3 +26 +26 жарко 1012.4 954.2
20 16.06 ЮЗ 1
{4}
н/о н/о +29.3 -20.4 3 +25 +25 комфорт 1012.6 954.2
21 16.06 ЮЗ 1
{3}
н/о н/о +29.4 -20.3 3 +25 +25 комфорт 1012.9 954.5
22 16.06 ЮЗ 1
{3}
н/о н/о +26.7 -22.1 3 +23 +23 комфорт 1013.9 955.0
23 16.06 ЮЗ 1
{3}
н/о н/о +24.8 -23.4 3 +21 +21 комфорт 1014.9 955.5
00 17.06 ЮЗ 1
{2}
н/о н/о +23.1 -24.5 3 +20 +20 1015.9 956.1
01 17.06 штиль 0
{1}
н/о н/о +21.5 -25.6 3 +19 +19 1016.7 956.6
02 17.06 ЮЗ 1
{1}
н/о н/о +20.6 -26.2 3 +21 +21 комфорт 1016.9 956.6
03 17.06 штиль 0
{1}
н/о н/о +19.7 -26.8 3 +19 +19 1016.9 956.4
04 17.06 штиль 0
{1}
н/о н/о +19.7 -26.9 3 +19 +19 1016.8 956.3
05 17.06 ЮЗ 1
{1}
н/о н/о +19.3 -27.1 3 +20 +20 1016.5 956.0
06 17.06 штиль 0
{1}
н/о н/о +19.0 -27.3 3 +18 +18 1016.5 955.9
07 17.06 штиль 0
{1}
н/о н/о +18.7 -27.5 3 +18 +18 1016.5 955.8
08 17.06 штиль 0
{1}
н/о н/о +17.9 -28.0 3 +18 +18 1016.6 955.8
09 17.06 штиль 0
{1}
н/о н/о +19.2 -27.2 3 +19 +19 1016.5 955.9
10 17.06 ЮЗ 1
{1}
н/о н/о +17.5 -28.3 3 +19 +19 1017.5 956.5
11 17.06 штиль 0
{1}
н/о н/о +17.9 -28.1 3 +18 +18 1018.1 957.2
12 17.06 штиль 0
{1}
н/о н/о +22.3 -25.1 3 +19 +19 1017.9 957.9
13 17.06 ЮЗ 1
{3}
н/о н/о +26.0 -22.6 3 +22 +22 комфорт 1017.3 958.0
14 17.06 ЮЗ 2
{5}
н/о н/о +29.1 -20.5 3 +25 +25 комфорт 1016.6 958.0
15 17.06 ЮЗ 2
{5}
н/о н/о +29.9 -19.9 3 +25 +25 комфорт 1016.0 957.5
16 17.06 ЮЗ 2
{4}
н/о н/о +31.0 -19.3 3 +26 +26 жарко 1014.9 956.7
17 17.06 ЮЗ 2
{4}
н/о н/о +30.6 -19.5 3 +26 +26 жарко 1013.7 955.5
18 17.06 ЮЗ 2
{4}
н/о н/о +30.3 -19.7 3 +26 +26 жарко 1012.7 954.5
19 17.06 ЮЗ 1
{4}
н/о н/о +30.9 -19.3 3 +26 +26 жарко 1011.8 953.8
20 17.06 ЮЗ 1
{3}
н/о н/о +30.4 -19.6 3 +26 +26 жарко 1011.6 953.5
21 17.06 ЮЗ 1
{3}
н/о н/о +28.9 -20.6 3 +24 +24 комфорт 1012.0 953.6
22 17.06 ЮЗ 1
{2}
н/о н/о +25.9 -22.6 3 +22 +22 комфорт 1012.9 953.9
23 17.06 ЮЗ 1
{2}
н/о н/о +24.1 -23.9 3 +21 +21 комфорт 1013.9 954.5
00 18.06 ЮЗ 1
{1}
н/о н/о +21.7 -25.5 3 +19 +19 1014.9 954.9
01 18.06 штиль 0
{1}
н/о н/о +21.3 -25.8 3 +19 +19 1015.5 955.4
02 18.06 штиль 0
{1}
н/о н/о +21.3 -25.7 3 +19 +19 1015.5 955.4

 

Местоположение метеостанции Кампу-Нову-ду-Паресис (Мату-Гросу, Бразилия): широта -13.78 долгота -57.83 высота над уровнем моря 572 м.

В архиве по умолчанию представлена погода в Кампу-Нову-ду-Паресисе за последнюю неделю. Архивные данные за месяц целиком и за предыдущие месяцы, начиная с января 2011 года, Вы можете получить, выбрав интересующий диапазон дат из раскрывающегося списка и нажав кнопку "Ввод!".


*Определитесь, кто Вы:
робот инопланетянин человек

Внимание! Время в таблицах - всемирное. Для получения местного времени необходимо прибавить поправку, которая равна -3 ч.

Смотрите также архив погоды в соседних городах и на ближайших метеорологических станциях:

Погода в Тангара-да-Серре (Мату-Гросу, Бразилия) (106 км)
Погода в Нова-Маринге (Мату-Гросу, Бразилия) (115 км)
Погода в Сан-Хосе-ду-Рио-Кларо (Мату-Гросу, Бразилия) (131 км)
Погода в Ново-Мундо (Мату-Гросу, Бразилия) (147 км)
Погода в Салту-ду-Сеу (Мату-Гросу, Бразилия) (154 км)
Погода в Диамантину (Мату-Гросу, Бразилия) (164 км)
Погода в Порто-Эстреле (Мату-Гросу, Бразилия) (184 км)
Погода в Комодоро (Мату-Гросу, Бразилия) (210 км)
Погода в Глеба Селеста (Мату-Гросу, Бразилия) (227 км)
Погода в Понтис-и-Ласерде (Мату-Гросу, Бразилия) (231 км)

Пояснения к столбцам:

Ветер - указаны скорость ветра в м/с - средняя за 10 мин, порывы в срок и между сроками (в фигурных скобках) и направление, откуда дует ветер: С - северный, СВ - северо-восточный, В - восточный, ЮВ - юго-восточный, Ю - южный, ЮЗ - юго-западный, З - западный, СЗ - северо-западный.
Видимость - горизонтальная дальность видимости в метрах или километрах. При видимости от 1 до 10 км при отсутствии осадков обычно наблюдается дымка, при ухудшении видимости до 1 км и менее - туман. В сухую погоду видимость может ухудшаться дымом, пылью или мглою.
Явления - указаны атмосферные явления, наблюдавшиеся в срок или в последний час перед сроком; фигурными скобками обозначены явления, наблюдавшиеся между сроками (за 1-3 часа до срока); квадратными скобками обозначены град или гололедные отложения с указанием их диаметра в мм.
Облачность - указаны через наклонную черту общая и нижняя облачность в баллах и высота нижней границы облаков в метрах; квадратными скобками обозначены формы облаков: Ci - перистые, Cs - перисто-слоистые, Cc - перисто-кучевые, Ac - высококучевые, As - высокослоистые, Sc - слоисто-кучевые, Ns - слоисто-дождевые, Cu - кучевые, Cb - кучево-дождевые. Подробнее классификацию облаков см. в Атласе облаков (PDF).
T - Температура воздуха - температура, измеренная на высоте 2 м над землей.
Td - Температура точки росы - температура, при понижении до которой содержащийся в воздухе водяной пар достигнет насыщения.
f - Относительная влажность воздуха - влажноcть воздуха, измеренная на высоте 2 м над землей.
Te - Эффективная температура - температура, которую ощущает одетый по сезону человек в тени. Характеристика душности погоды. При расчете учитывается влияние влажности воздуха и скорости ветра на теплоощущения человека.
Tes - Эффективная температура на солнце - температура, которую ощущает человек, с поправкой на солнечный нагрев. Характеристика знойности погоды. Зависит от высоты солнца над горизонтом, облачности и скорости ветра. Ночью, в пасмурную погоду, а также при ветре 12 м/с и более поправка равна нулю.
P - Атмосферное давление - приведенное к уровню моря атмосферное давление.
Po - Атмосферное давление - измеренное на уровне метеостанции атмосферное давление.
Tmin - Минимальная температура - минимум температуры воздуха на высоте 2 м над землей.
Tmax - Максимальная температура - максимум температуры воздуха на высоте 2 м над землей.
R - Количество осадков - Количество выпавших осадков за период времени, мм. При наведении курсора мыши на число - период времени, за который выпало указанное количество осадков.
R24 - Количество осадков - Количество выпавших осадков за 24 часа, мм.
S - Снежный покров - Высота снежного покрова, см. При наведении курсора мыши на число - состояние снежного покрова и степень покрытия местности в баллах.